Regional Weather Roundup
Issued by NWS Boston, MA

Home | Current Version | Previous Version | Text Only | Print | Product List | Glossary On
Versions: 1 2 3 4 5 6 7 8 9 10 11 12 13 14 15 16 17 18 19 20 21 22 23 24 25 26 27
000
ASUS41 KBOX 240310
RWRBOX

REGIONAL WEATHER ROUNDUP
NATIONAL WEATHER SERVICE TAUNTON MA
1000 PM EST MON JAN 23 2017

NOTE:  "FAIR" INDICATES FEW OR NO CLOUDS BELOW 12,000 FEET WITH NO
SIGNIFICANT WEATHER AND/OR OBSTRUCTIONS TO VISIBILITY.

MAZALL-240400-
EASTERN MASSACHUSETTS

CITY           SKY/WX    TMP DP  RH WIND       PRES   REMARKS
BOSTON         RAIN      37  36  96 NE30G39   29.85F FOG     WCI  24
BEVERLY        LGT RAIN  36  33  89 NE14G28   29.86F FOG     WCI  27
LAWRENCE       LGT SNOW  35  32  88 NE23G30   29.90F FOG     WCI  23
BEDFORD        LGT SNOW  34  30  85 NE16G26   29.84F FOG     WCI  24
BLUE HILL        N/A     34  33  96 NE23G45   29.77F WCI  22
NORWOOD        LGT RAIN  38  36  92 NE16G26   29.82F FOG     WCI  29
MARSHFIELD     MIX PCPN  39  39 100 NE25G37   29.81S WCI  28
PLYMOUTH       RAIN      39  37  92 NE21G33   29.76F FOG     WCI  29
TAUNTON        RAIN      39  36  89 NE10G24   29.75F FOG
NEW BEDFORD    HVY RAIN  40  37  89 NE22G30   29.71F FOG     WCI  30
$$

MAZALL-240400-
CAPE COD AND THE ISLANDS

CITY           SKY/WX    TMP DP  RH WIND       PRES   REMARKS
FALMOUTH         N/A    N/A N/A N/A MISG        N/A
HYANNIS        HVY RAIN  41  38  89 NE23G40   29.67F FOG     WCI  31
CHATHAM        RAIN      42  39  89 E25G41    29.71F FOG
PROVINCETOWN   LGT RAIN  40  38  93 E31G45    29.77F FOG     WCI  28
NANTUCKET      RAIN      43  40  89 E26G43    29.62F FOG
MARTHAS VNYRD  RAIN      42  40  92 NE26G37   29.64F FOG     WCI  32
$$

MAZALL-240400-
CENTRAL AND WESTERN MASSACHUSETTS

CITY           SKY/WX    TMP DP  RH WIND       PRES   REMARKS
WORCESTER      LGT SNOW  31  29  92 NE13G35   29.76F VSB 1   WCI  21
FITCHBURG      LGT SNOW  31  29  92 N10G17    29.87F VSB 3/4 WCI  22
ORANGE         MIX PCPN  31  28  89 NE12G20   29.84F FOG     WCI  22
SPRINGFIELD    SLEET     34  28  81 NE20      29.76F WCI  22
WESTFIELD      RAIN      33  30  88 N16G26    29.77F FOG     WCI  23
NORTH ADAMS    LGT SNOW  32  23  69 E22G33    29.79F WCI  19
PITTSFIELD     MIX PCPN  30  24  78 NE20G30   29.72F WCI  17
$$

RIZALL-240400-
RHODE ISLAND

CITY           SKY/WX    TMP DP  RH WIND       PRES   REMARKS
PROVIDENCE     RAIN      38  35  89 NE24G36   29.73F FOG     WCI  27
NEWPORT        LGT RAIN  39  38  96 NE20G35   29.68F FOG     WCI  29
SMITHFIELD     MIX PCPN  36  34  92 NE18G26   29.75F FOG     WCI  26
WESTERLY       LGT RAIN  40  35  83 NE17G28   29.65F WCI  31
$$

CTZALL-240400-
CONNECTICUT

CITY           SKY/WX    TMP DP  RH WIND       PRES   REMARKS
BRADLEY INTL   SLEET     33  31  92 N18       29.74F FOG     WCI  22
HARTFORD       RAIN      34  32  92 N13       29.71F FOG     WCI  25
BRIDGEPORT     LGT RAIN  38  33  82 NE23G35   29.61F WCI  27
DANBURY        RAIN      34  30  85 NE17G28   29.62F WCI  23
GROTON         LGT RAIN  39  38  96 NE22G36   29.62F WCI  29
NEW HAVEN      MIX PCPN  36  33  89 NE20G31   29.61F WCI  25
CHESTER        LGT RAIN  36  34  93 NE18G29   29.62F WCI  25
MERIDEN        LGT RAIN  35  31  85 N13G22    29.67F FOG     WCI  26
WILLIMANTIC    RAIN      37  34  89 NE21G31   29.70F FOG     WCI  26
OXFORD         CLOUDY    34  28  80 NE22G33   29.60F WCI  22
$$

MEZ002-015-021-024-NHZ003-005-008-011-012-014-VTZ005-008-240400-
NORTHERN NEW ENGLAND

CITY           SKY/WX    TMP DP  RH WIND       PRES   REMARKS
PORTLAND ME    CLOUDY    31  21  66 NE17      30.02F WCI  19
BANGOR ME      CLOUDY    28  16  60 NE9       30.12R WCI  19
CONCORD NH     MIX PCPN  31  22  69 NE15G21   29.94F WCI  20
MANCHESTER NH  NOT AVBL
NASHUA NH      NOT AVBL
PORTSMOUTH NH  LGT RAIN  33  28  82 N13       29.92F WCI  24
JAFFREY NH     NOT AVBL
KEENE NH       NOT AVBL
BURLINGTON VT  MOCLDY    34  21  59 NE5       29.92F WCI  30
MT. WASHINGTON MOCLDY    12  -4  48 E61G72      N/A  WCI -16
$$

NYZ052-076-240400-
EASTERN NEW YORK

CITY           SKY/WX    TMP DP  RH WIND       PRES   REMARKS
ALBANY         LGTSLEET  33  27  78 N8        29.81F WCI  26
NEW YORK CITY  RAIN      39  35  86 NE29G40   29.56F FOG     WCI  27
$$

ANZALL-240400-
MARINE OBSERVATIONS

STATION/POSITION TIME  TEMP    WIND        PRES    VSBY  WAVE
                       AIR SEA DIR/SP/G                  HT/PER
                 (UTC) (F)     (DEG/KT/KT) (MB)    (MI)  (FT/S)
BOSTON BUOY      0150   40 43   60/ 31/ 39 1009.2         14/ 9
BUZZARDS BAY     0200   40      50/ 30/ 35 1004.8F
NANTUCKET SOUND  0150      43   60/ 33/ 43 1003.7          7/ 5
MASS BAY-STELLWA 0204   40 45   60/ 27/ 33 1011.0S  1 5/8
ISLE OF SHOALS   0200   37      60/ 33/ 37 1012.2R
S OF BLOCK IS    0255      47                N/A          14/ 9
$$

......................KEY.........................
  SKY/WX - SKY CONDITION/PRESENT WEATHER
  TMP    - TEMPERATURE IN FAHRENHEIT
  DWPT   - DEWPOINT IN FAHRENHEIT
  RH     - RELATIVE HUMIDITY IN PERCENT
  WIND   - DIRECTION AND SPEED IN MPH
  PRES   - MEAN SEA LEVEL PRESSURE IN INCHES OF HG
  WCI    - WIND CHILL INDEX
  VSB    - VISIBILITY IN MILES
  HX     - HEAT INDEX
  TC     - TEMPERATURE IN CELSIUS
  VRB    - VARIABLE WIND DIRECTION
  N/A    - NOT AVAILABLE




USA.gov is the U.S. government's official web portal to all federal, state and local government web resources and services.